User: anonymous   Login
Location: Goudex
(43.3760°N, 0.9543°E)
Time: 19:30:46
(UTC+00:00)
Language:

NOAA 6 - Orbit

View from above orbital plane
View from above orbital plane
View from above satellite
View from above satellite

Ground track
Ground track

The orbit data is extracted from the following two-line orbital elements,

1 11416U 79057A   20023.50436758 -.00000002  00000-0  15486-4 0  9997
2 11416  98.6506  22.3572 0009753 327.9501  32.1089 14.33561894116220
Epoch (UTC): 23 January 2020 12:06:17
Eccentricity: 0.0009753
inclination: 98.6506°
perigee height: 773 km
apogee height: 787 km
right ascension of ascending node: 22.3572°
argument of perigee: 327.9501°
revolutions per day: 14.33561894
mean anomaly at epoch: 32.1089°
orbit number at epoch: 11622

The dashed part of the orbit path shows where the satellite is in the earth's shadow,  

DLR